Russellville, AR

3:04 AM CDT on October 21, 2019 (GMT -0500)
Russellville Regional

Weather History for KRUE - August, 2019

Change the Weather History Date:

Saturday, August 31, 2019

  Actual Average (WUND) Record (WUND)
Temperature  
Mean Temperature 80 °F -  
Max Temperature 91 °F - - (-1)
Min Temperature 68 °F - - (-1)
Cooling Degree Days 14    
Growing Degree Days 30 (Base 50)    
Moisture  
Dew Point 69 °F    
Average Humidity 75    
Maximum Humidity 94    
Minimum Humidity 44    
Precipitation  
Precipitation 0.00 in - - ()
Sea Level Pressure  
Sea Level Pressure 30.04 in    
Wind  
Wind Speed 1 mph (ESE)    
Max Wind Speed 7 mph    
Max Gust Speed -    
Visibility 10 miles    
Events      
Averages and records for this station are not official NWS values.
T = Trace of Precipitation, MM = Missing Value Source: NWS Daily Summary

Daily Weather History Graph

Daily Weather History Graph

Search for Another Location

Airport or City:

Astronomy

Aug. 31, 2019 Rise Set
Actual Time 6:43 AM CDT 7:40 PM CDT
Civil Twilight 6:17 AM CDT 8:06 PM CDT
Nautical Twilight 5:47 AM CDT 8:37 PM CDT
Astronomical Twilight 5:15 AM CDT 9:09 PM CDT
Moon 7:59 AM CDT (8/31) 8:56 PM CDT (8/31)
Length of Visible Light 13h 48m
Length of Day
12h 56m
New Moon, 3% of the Moon is Illuminated
Aug 31
New Moon
Sep 5
First Quarter
Sep 13
Full
Sep 21
Last Quarter
Sep 28
New

Hourly Weather History & Observations

Time (CDT) Temp. Heat Index Dew Point Humidity Pressure Visibility Wind Dir Wind Speed Gust Speed Precip Events Conditions
12:53 AM 70.0 °F - 68.0 °F 93% 30.05 in 10.0 mi Calm Calm - N/A   Clear
1:53 AM 72.0 °F - 68.0 °F 87% 30.05 in 10.0 mi North 5.8 mph - N/A   Clear
2:53 AM 72.0 °F - 68.0 °F 87% 30.04 in 10.0 mi Calm Calm - N/A   Clear
4:53 AM 69.1 °F - 66.9 °F 93% 30.04 in 10.0 mi Calm Calm - N/A   Clear
5:48 AM 68.0 °F - 66.2 °F 94% 30.06 in 10.0 mi Calm Calm - N/A   Partly Cloudy
5:53 AM 69.1 °F - 66.9 °F 93% 30.04 in 10.0 mi Calm Calm - N/A   Partly Cloudy
6:53 AM 69.1 °F - 66.0 °F 90% 30.05 in 9.0 mi Calm Calm - N/A   Clear
7:53 AM 71.1 °F - 66.9 °F 87% 30.07 in 10.0 mi Calm Calm - N/A   Clear
8:53 AM 73.9 °F - 68.0 °F 82% 30.08 in 10.0 mi Calm Calm - N/A   Clear
9:53 AM 78.1 °F - 68.0 °F 71% 30.09 in 10.0 mi Variable 3.5 mph - N/A   Clear
10:53 AM 81.0 °F 84.1 °F 69.1 °F 67% 30.08 in 10.0 mi Calm Calm - N/A   Clear
11:53 AM 82.9 °F 87.0 °F 70.0 °F 65% 30.08 in 10.0 mi Calm Calm - N/A   Clear
12:53 PM 84.9 °F 89.4 °F 70.0 °F 61% 30.06 in 10.0 mi South 3.5 mph - N/A   Clear
1:53 PM 87.1 °F 92.0 °F 70.0 °F 57% 30.05 in 10.0 mi North - - N/A   Partly Cloudy
2:53 PM 88.0 °F 92.1 °F 69.1 °F 53% 30.02 in 10.0 mi WSW 6.9 mph - N/A   Clear
3:53 PM 91.0 °F 93.8 °F 66.0 °F 44% 30.00 in 10.0 mi ENE 4.6 mph - N/A   Clear
4:53 PM 89.1 °F 91.0 °F 64.9 °F 45% 29.99 in 10.0 mi Variable 4.6 mph - N/A   Clear
5:53 PM 88.0 °F 92.9 °F 70.0 °F 55% 29.98 in 10.0 mi Variable 3.5 mph - N/A   Clear
6:53 PM 86.0 °F 91.5 °F 71.1 °F 61% 29.98 in 10.0 mi ESE 3.5 mph - N/A   Clear
7:53 PM 80.1 °F 83.8 °F 72.0 °F 76% 29.99 in 10.0 mi Calm Calm - N/A   Scattered Clouds
8:53 PM 80.1 °F 83.8 °F 72.0 °F 76% 30.01 in 10.0 mi Variable 3.5 mph - N/A   Clear
9:53 PM 75.0 °F - 72.0 °F 90% 30.04 in 10.0 mi Calm Calm - N/A   Clear
10:53 PM 75.0 °F - 72.0 °F 90% 30.04 in 10.0 mi Calm Calm - N/A   Clear
11:53 PM 73.9 °F - 71.1 °F 91% 30.05 in 10.0 mi Calm Calm - N/A   Clear